This is the latest recevied weather packets stored in our database for station/object KC3DGM. If no packets are shown the sender has not sent any weather packets the latest 10 day(s).
| Time | Temp. | Humidity | Pressure | Rain* | Wind** | Luminosity | Snow |
|---|---|---|---|---|---|---|---|
| 1777291827 | 7.22° C | 99% | 994.3 hPa | 0 mm | - | 27 W/m² | - |
| 1777291524 | 6.67° C | 99% | 994.3 hPa | 0 mm | - | 25 W/m² | - |
| 1777291221 | 6.67° C | 99% | 994.1 hPa | 0 mm | - | 23 W/m² | - |
| 1777290918 | 6.11° C | 99% | 994.1 hPa | 0 mm | - | 24 W/m² | - |
| 1777290615 | 5.56° C | 99% | 993.9 hPa | 0 mm | - | 26 W/m² | - |
| 1777290311 | 5° C | 99% | 993.9 hPa | 0 mm | - | 20 W/m² | - |
| 1777290007 | 4.44° C | 99% | 994.1 hPa | 0 mm | - | 20 W/m² | - |
| 1777289703 | 3.89° C | 99% | 993.9 hPa | 0 mm | - | 19 W/m² | - |
| 1777289399 | 3.89° C | 99% | 993.8 hPa | 0 mm | - | 19 W/m² | - |
| 1777289096 | 3.33° C | 99% | 994 hPa | 0 mm | - | 17 W/m² | - |
| 1777288792 | 3.33° C | 99% | 994 hPa | 0 mm | - | 16 W/m² | - |
| 1777288490 | 3.33° C | 99% | 994.2 hPa | 0 mm | - | 16 W/m² | - |
| 1777288185 | 2.78° C | 99% | 993.9 hPa | 0 mm | - | 14 W/m² | - |
| 1777287882 | 2.78° C | 99% | 994 hPa | 0 mm | - | 12 W/m² | - |
| 1777287579 | 2.78° C | 99% | 993.7 hPa | 0 mm | - | 11 W/m² | - |
| 1777287275 | 2.78° C | 99% | 993.9 hPa | 0 mm | - | 10 W/m² | - |
| 1777286972 | 2.78° C | 99% | 993.7 hPa | 0 mm | - | 7 W/m² | - |
| 1777286669 | 2.78° C | 99% | 993.5 hPa | 0 mm | - | 6 W/m² | - |
| 1777286366 | 2.78° C | 99% | 993.7 hPa | 0 mm | - | 4 W/m² | - |
| 1777286063 | 2.78° C | 99% | 993.5 hPa | 0 mm | - | 3 W/m² | - |
| 1777285761 | 2.78° C | 99% | 993.2 hPa | 0 mm | - | 1 W/m² | - |
| 1777285458 | 2.78° C | 99% | 993.4 hPa | 0 mm | - | 0 W/m² | - |
| 1777285154 | 2.78° C | 99% | 993.6 hPa | 0 mm | - | 0 W/m² | - |
| 1777284852 | 2.78° C | 99% | 993.3 hPa | 0 mm | - | 0 W/m² | - |
| 1777284549 | 2.78° C | 99% | 993.4 hPa | 0 mm | - | 0 W/m² | - |
* Rain latest hour (hover to see other rain measurements)
** Current wind speed in m/s (hover to see current wind gust speed)